sat.trackr.live / text

‹ back to catalog

LCS 1

NORAD 1361 · 1965-034C

PAYLOAD ACTIVE UNKNOWN

§ Identity

Operator
Country
US
Launch date
1965-05-06
Launch site
AFETR
Launch vehicle
Mass (kg)
RCS (m²)
0.81

Purposes: military

External: N2YO · Heavens-Above · Gunter

§ Orbital elements

Epoch: 2026-09-15T13:07:29.018496Z

Period
145.56 min
Inclination
32.1452°
Eccentricity
0.0011187
Mean motion
9.89310730 rev/d
Perigee alt
2,777.6 km
Apogee alt
2,798.1 km
Semi-major
9,166.0 km
B*
9.5054e-4
RAAN
322.4857°
Arg perigee
82.6762°
Mean anomaly
277.5006°
Rev number
21,883

§ Raw data

LCS 11 01361U 65034C   26258.54686364  .00000016  00000+0  95054-3 0  99962 01361  32.1452 322.4857 0011187  82.6762 277.5006  9.89310730218839

JSON: /api/v1/satellites/1361 · /tle

For live sub-satellite position, see the globe view (requires WebGL).

§ Visibility from observer

Set your observer location to see the next 7 days of passes ≥ 10°. The values pass through the URL so the page stays shareable.

No JS? Fill the form by hand. The geolocation button needs JavaScript.